Theta_e
304 295 293 293 294 296 297 298 298 299 301 301 300 299 296 296 298 301 302 303 304 301 300 301 301 301 302 305 307 308 310 310 310 309 311 312 314 319 324 327 326 329 331 336 339 340 343 345 345 346 346 345 345 345 345 345 345 345 343 344 343 346 347 346 343 343 343 342 341 343 343 343 343 342 343 343 343 343 342 342 342 342 341 342 341 342
302 294 294 296 297 298 298 300 300 299 300 300 299 298 297 297 296 301 301 303 304 302 299 302 301 301 302 305 306 308 308 307 308 309 311 312 314 316 325 324 326 328 334 337 337 340 342 342 345 345 345 345 342 343 344 344 344 345 345 344 344 346 348 349 348 347 344 345 347 344 343 344 342 340 340 339 341 343 343 344 343 343 342 342 342 343
294 293 296 299 300 300 300 300 300 299 298 299 297 298 297 297 300 303 303 305 303 301 299 301 300 300 302 305 306 306 306 308 310 310 311 314 314 320 324 326 328 331 330 334 336 338 340 342 343 344 345 344 344 344 344 345 344 344 344 345 345 346 345 346 346 344 344 347 345 345 344 341 344 350 347 343 342 343 343 343 343 345 343 342 342 340
291 294 299 301 300 299 298 300 299 299 299 297 297 297 295 299 297 295 301 304 304 301 299 301 299 300 303 306 306 308 308 308 310 311 313 314 314 321 324 323 329 328 329 331 333 335 338 339 340 341 342 343 344 343 343 344 343 344 344 344 344 345 346 346 346 343 346 345 345 347 345 346 344 342 344 345 346 344 343 342 344 342 343 342 341 340
294 298 301 301 300 298 297 298 298 297 295 298 298 298 297 298 298 298 299 302 303 302 304 301 299 299 301 302 303 308 310 309 310 312 314 315 314 316 326 327 329 328 330 330 331 334 336 338 337 339 339 341 341 342 342 343 344 343 343 344 344 344 345 346 344 345 346 346 342 344 343 344 344 343 341 341 340 341 341 342 341 342 343 342 342 341
297 301 302 299 299 298 297 296 298 298 295 296 299 300 300 301 300 300 301 299 297 296 300 299 292 293 299 301 303 305 307 307 309 311 311 312 314 320 324 326 328 328 329 330 331 333 335 337 338 338 339 339 340 341 342 344 343 343 343 343 343 344 346 345 344 345 344 342 341 341 339 337 337 337 337 336 338 339 339 339 342 342 342 342 341 341
298 303 302 298 298 297 297 296 298 299 295 295 296 302 302 302 301 300 299 298 293 291 297 301 292 290 298 298 303 304 305 306 311 312 312 313 313 316 322 324 326 326 328 330 332 333 333 336 336 337 338 338 338 339 341 342 342 341 341 341 341 343 344 344 342 343 342 340 340 340 338 338 339 340 341 344 344 345 343 344 343 343 343 342 341 341
300 301 301 300 298 297 296 294 298 299 295 294 302 303 302 301 300 299 298 298 296 300 301 300 297 292 292 297 304 305 304 306 308 310 311 312 314 322 323 324 327 327 329 330 330 332 334 334 336 335 337 337 337 338 339 340 340 339 339 339 340 342 342 344 344 343 343 340 341 339 339 339 338 339 342 344 345 345 344 342 342 342 344 344 342 342
300 298 300 299 298 296 295 297 299 300 296 297 302 303 301 301 300 300 299 297 298 296 292 296 299 293 293 298 304 305 302 303 304 307 308 309 312 322 322 321 325 327 330 330 330 331 331 331 332 333 333 336 336 337 337 337 338 339 339 340 339 341 341 343 344 343 342 341 341 340 340 339 339 340 343 342 343 344 342 340 341 342 341 343 343 342
301 300 301 302 299 295 298 300 300 301 297 300 303 304 303 302 300 300 298 297 297 294 289 294 297 291 292 298 299 302 301 301 303 306 310 313 314 322 322 322 323 324 325 330 329 328 328 329 330 331 332 333 335 336 337 337 338 337 338 338 338 339 341 344 343 343 342 342 341 340 339 338 338 340 342 341 341 339 340 339 341 340 342 342 343 342
302 305 306 302 300 300 300 301 301 300 301 304 303 301 299 298 298 299 298 298 295 289 291 296 297 295 289 296 298 299 300 303 305 308 315 316 319 321 322 322 323 323 324 327 327 328 328 329 330 331 330 331 334 336 337 337 336 338 338 338 337 340 343 343 343 342 341 341 341 339 339 338 338 338 338 338 336 337 336 336 337 338 338 340 340 341
301 302 300 302 305 304 303 300 302 302 302 302 299 297 296 295 297 296 295 298 289 287 293 297 297 297 288 293 299 304 306 306 309 311 310 314 316 319 320 321 324 324 325 325 325 325 326 326 328 329 329 330 331 334 335 336 336 335 336 336 336 338 340 341 342 343 341 340 341 341 340 339 339 338 337 336 332 332 331 333 336 339 339 336 337 340
296 298 302 303 306 303 300 298 298 300 302 300 298 296 291 288 289 285 290 286 287 287 294 297 298 294 292 300 310 304 305 308 315 315 315 315 317 319 320 322 323 324 324 324 325 324 325 325 326 327 328 329 330 331 332 334 335 334 334 335 335 335 338 339 340 340 340 341 340 341 340 340 340 338 338 335 335 335 331 331 333 335 335 336 336 337
294 299 300 300 302 304 302 294 295 294 297 297 294 293 290 286 284 282 285 288 289 292 297 296 299 293 299 306 311 307 312 314 315 316 316 317 317 318 319 320 321 322 323 323 323 324 324 325 326 327 327 327 328 329 330 331 332 333 333 332 331 332 336 336 338 338 338 339 340 340 340 340 339 338 337 339 334 334 334 333 333 334 334 334 335 335
286 288 294 298 295 302 300 299 298 296 296 295 298 295 292 291 287 281 285 282 285 288 293 298 293 290 295 301 312 313 315 315 315 316 316 318 318 319 319 320 319 319 319 320 320 321 322 323 324 325 325 326 326 327 328 329 329 330 330 329 329 330 331 333 333 334 334 335 337 338 339 338 338 338 337 336 337 337 336 336 335 335 336 335 335 334
291 291 297 302 301 302 299 302 302 299 297 298 298 298 294 292 297 288 289 289 289 289 289 292 293 303 302 311 313 314 314 313 315 316 316 315 316 317 316 316 316 317 318 319 319 319 320 321 322 323 323 324 325 324 326 326 327 328 328 328 329 328 330 331 332 333 333 334 335 336 336 337 336 336 336 335 336 337 339 338 337 335 336 336 336 334
292 289 299 300 301 301 300 302 300 302 289 296 296 291 294 301 298 292 291 297 293 290 287 293 299 303 307 309 311 312 311 312 313 313 313 313 314 315 314 314 315 316 317 317 317 318 319 320 321 322 322 322 323 324 324 324 326 326 326 326 326 327 329 329 330 331 332 333 334 335 335 336 336 335 334 334 335 336 336 337 338 335 335 336 335 333
290 290 298 298 296 301 303 302 301 302 302 298 291 295 301 303 301 295 286 289 287 285 287 294 295 296 298 292 307 307 308 309 310 311 312 313 313 312 313 314 315 316 316 316 317 318 318 319 320 320 321 322 322 322 323 323 326 327 327 326 326 326 326 327 328 330 331 332 333 333 334 335 335 334 334 335 335 336 335 335 336 336 334 332 334 331
296 288 294 298 298 300 303 301 298 301 304 298 296 303 294 289 288 294 291 283 283 282 285 290 298 298 299 297 303 304 306 307 309 310 310 310 311 310 311 313 315 315 315 315 316 317 318 318 320 320 320 321 321 323 324 324 326 327 326 326 326 325 327 327 328 329 330 331 331 332 333 333 334 334 334 334 335 334 333 333 334 334 334 333 333 332
298 288 291 298 298 300 300 297 289 294 301 302 303 299 301 297 293 290 290 292 290 284 284 286 296 291 301 302 304 305 308 308 308 309 309 310 310 310 311 312 313 313 314 314 315 316 317 318 318 319 320 319 321 321 324 324 326 324 325 325 325 326 326 326 327 328 329 330 330 331 331 332 332 332 333 333 333 333 332 333 332 332 331 332 332 332
292 297 286 294 299 298 291 295 292 295 293 295 296 295 296 297 300 297 297 292 289 286 286 285 285 294 299 308 306 307 309 310 309 309 309 309 310 310 311 312 313 313 313 315 315 315 316 317 319 320 321 322 322 324 325 324 323 323 324 324 324 323 324 324 326 326 327 328 329 330 330 330 331 331 331 332 333 333 332 333 333 332 332 331 331 331
291 293 287 292 292 291 293 298 298 299 299 296 295 294 295 293 291 288 287 296 294 291 287 285 284 297 305 311 310 310 312 311 311 310 309 309 309 310 311 312 312 312 313 314 315 316 316 318 318 320 321 321 321 322 322 323 323 322 322 323 324 323 323 323 323 324 325 327 327 327 328 329 330 330 331 331 331 331 331 332 332 332 332 331 331 331
299 299 292 288 291 292 296 300 301 302 301 299 298 296 298 296 295 291 285 289 293 293 295 292 288 292 309 312 312 312 312 312 311 310 309 309 309 309 310 311 312 313 313 314 314 315 316 318 319 319 319 318 319 321 323 322 321 321 321 321 322 321 322 322 323 323 324 325 326 326 327 328 328 328 328 329 330 331 330 330 331 331 330 329 329 331
304 291 290 290 294 296 299 300 301 301 300 298 298 299 297 294 295 294 293 295 291 292 290 290 287 294 308 311 312 312 312 311 311 310 308 308 308 308 309 309 310 311 312 313 315 316 317 317 319 317 317 317 318 319 320 321 319 320 320 320 320 320 321 321 322 323 323 324 324 325 325 325 326 326 327 327 328 329 330 330 331 331 331 330 331 330
291 294 292 287 287 289 292 295 295 298 298 296 295 297 298 299 298 298 298 301 290 293 292 289 285 291 305 311 311 310 309 309 308 309 309 307 307 308 308 309 310 311 311 312 313 314 315 315 315 315 316 316 316 317 320 318 318 318 319 319 319 319 320 321 321 322 322 323 323 323 323 324 324 325 326 326 327 328 330 330 331 331 329 330 330 329
294 293 291 285 282 279 280 282 285 288 292 296 297 297 298 297 297 296 290 292 287 292 293 290 291 299 305 309 308 308 307 306 308 308 309 309 308 308 308 309 310 310 311 312 313 313 313 314 314 314 315 315 316 316 316 318 318 318 318 319 320 318 319 320 320 321 322 322 322 321 322 323 324 324 326 327 327 329 330 330 329 329 329 329 328 330
295 298 294 292 288 286 289 292 297 296 294 291 294 296 296 297 298 298 297 291 288 292 291 296 296 298 299 303 305 306 306 306 305 307 307 308 308 309 309 309 309 310 310 311 312 313 313 313 314 314 314 315 316 316 316 316 316 316 317 318 318 319 319 320 321 320 321 321 321 321 321 322 323 325 326 327 328 329 329 329 330 329 328 329 329 329
298 292 295 295 295 296 296 296 300 297 294 294 294 294 297 296 298 298 291 290 298 292 286 298 301 298 300 303 304 306 306 305 306 306 307 307 308 308 308 308 308 309 310 311 311 311 311 312 313 314 314 314 314 315 316 315 315 316 316 316 317 318 319 321 320 319 319 320 320 320 321 322 324 325 325 327 327 328 328 328 328 330 330 330 329 328
296 290 297 297 297 298 298 299 300 300 299 296 296 297 296 297 298 296 298 298 301 290 290 299 302 301 302 304 306 306 306 305 305 306 307 308 308 308 308 308 308 309 309 309 310 311 311 311 312 313 313 313 314 314 315 314 314 316 316 316 316 317 318 319 319 318 318 319 318 319 320 321 323 324 324 325 325 325 325 325 326 327 327 328 328 328
297 291 297 297 296 296 297 298 299 298 297 297 296 296 297 299 298 298 298 300 302 299 300 301 302 302 304 304 306 306 307 307 307 308 308 307 307 307 307 307 307 308 308 308 309 310 310 311 311 312 312 312 312 312 312 313 314 314 314 315 316 317 318 319 318 318 317 317 318 318 319 321 322 322 322 322 322 322 323 323 323 324 324 326 327 327
297 292 298 297 293 294 298 299 299 298 297 298 301 297 298 300 299 299 301 302 303 302 302 301 300 298 304 306 306 307 307 307 307 306 306 306 307 307 306 306 307 307 308 308 309 309 310 311 311 311 311 311 311 311 311 313 313 314 314 315 315 316 317 318 318 318 317 316 317 318 318 319 320 320 320 320 321 321 320 319 319 319 320 321 323 325
299 293 299 297 290 290 296 297 296 299 299 296 296 298 299 297 296 299 295 302 301 299 300 300 297 296 302 303 303 304 304 304 304 304 305 305 306 306 305 306 306 306 307 307 308 309 309 309 309 309 309 310 311 311 311 310 313 313 313 314 315 316 318 318 317 317 316 316 316 317 317 318 318 318 318 319 319 319 318 318 317 317 317 318 319 322
297 297 292 291 288 288 295 297 297 296 295 291 291 297 300 302 303 303 304 304 304 304 297 290 297 300 301 302 301 302 303 303 304 304 304 305 306 306 305 305 305 306 306 307 307 308 308 308 308 308 309 309 311 310 310 312 311 312 313 314 316 317 317 317 317 316 315 315 315 315 316 316 317 317 317 317 318 318 317 316 315 315 315 315 317 318
298 297 293 296 288 288 294 296 295 290 284 286 298 302 302 301 301 300 300 302 304 304 300 302 300 301 301 301 301 301 301 301 301 303 306 305 304 304 304 304 305 306 306 307 307 308 308 307 307 308 309 310 310 311 313 313 312 313 315 314 315 316 316 315 315 315 314 314 314 315 315 315 316 316 316 316 316 315 315 314 314 315 314 314 315 315
296 295 293 296 289 288 293 293 287 282 285 293 300 301 305 304 303 300 300 300 301 301 299 298 299 299 301 302 301 299 298 299 301 302 303 305 304 303 302 303 304 305 305 306 306 306 306 306 307 308 308 309 310 312 312 311 312 313 313 314 314 314 314 314 314 313 312 312 313 314 314 314 314 315 315 315 315 314 314 314 314 314 313 312 312 312
293 293 294 291 292 291 289 288 281 282 292 298 299 301 305 304 303 300 297 300 301 301 301 298 299 300 299 298 297 298 298 298 299 300 302 304 304 303 302 302 304 305 305 306 306 306 305 306 307 307 308 310 310 309 310 311 312 312 312 313 313 313 313 313 312 312 311 311 312 312 312 312 313 313 313 313 313 313 313 313 313 312 312 311 310 311
300 298 293 289 292 286 288 288 286 293 294 295 296 297 300 297 298 296 289 295 302 301 301 298 296 296 295 296 296 296 296 296 294 294 300 302 302 303 303 303 303 304 305 306 306 305 306 307 308 309 310 310 309 309 311 312 311 312 311 311 311 311 312 312 311 310 310 310 310 311 311 311 311 311 311 311 312 311 311 312 312 312 312 310 310 309
303 294 296 291 288 292 288 285 286 286 283 289 298 302 308 306 305 303 297 293 300 300 300 296 294 294 294 294 294 295 296 293 289 289 296 298 299 300 302 303 304 305 305 305 306 306 307 308 309 310 310 309 309 310 312 312 312 311 310 310 310 310 310 310 309 309 309 309 309 310 310 310 310 310 310 310 309 310 310 311 312 311 312 310 309 308
301 299 294 292 289 289 287 284 284 282 286 294 298 302 305 307 306 306 296 289 298 299 299 297 295 295 294 294 294 296 296 291 287 289 295 297 299 300 300 302 303 304 305 305 305 305 307 308 309 309 309 309 308 310 312 311 311 310 309 309 309 309 309 309 308 308 308 308 309 309 310 310 309 309 309 309 308 309 308 309 309 311 311 311 310 309
295 292 291 289 286 287 287 285 283 287 286 294 301 301 303 305 306 302 287 286 297 299 300 299 296 296 296 296 296 297 296 290 287 291 297 298 299 300 301 301 302 303 303 305 306 307 308 309 308 308 308 308 309 310 310 310 309 309 308 308 309 308 308 308 308 308 308 308 308 308 308 308 307 307 307 308 307 308 308 308 308 308 309 310 310 309
289 289 289 287 287 286 286 286 288 289 295 301 300 304 303 306 302 289 284 292 300 300 301 300 298 298 298 297 298 292 294 297 295 296 298 298 298 298 301 301 300 300 300 301 300 303 307 307 307 307 307 308 309 309 310 309 309 307 308 308 307 307 308 309 309 308 307 307 305 305 305 306 306 305 305 306 306 307 307 307 307 307 306 306 307 307
290 289 289 290 287 286 287 286 287 290 296 301 302 303 304 298 289 287 296 304 303 301 301 301 299 299 299 298 295 294 295 296 297 297 297 297 297 297 298 299 300 300 301 301 302 305 306 306 306 306 307 308 308 309 309 309 307 306 307 307 306 308 309 309 309 308 307 306 304 303 303 302 303 304 304 304 305 305 305 306 306 305 305 304 304 304
290 287 287 287 289 288 288 287 285 282 291 303 302 300 302 291 292 300 302 303 304 302 301 300 300 300 298 295 296 296 295 296 296 297 297 297 297 297 298 299 299 299 299 300 301 304 305 304 304 305 306 307 308 308 308 308 306 306 306 306 307 308 309 309 308 307 307 305 304 303 302 301 300 300 301 301 302 302 302 303 304 304 303 302 302 301
297 289 288 290 293 286 286 284 285 292 298 303 302 292 298 300 303 303 302 300 302 302 299 297 297 297 297 296 295 295 296 296 296 296 296 297 297 298 298 299 299 300 300 301 301 303 304 304 304 304 305 306 306 306 307 307 305 305 305 306 308 308 308 307 307 306 305 305 303 302 302 302 301 300 299 299 299 299 298 299 302 302 301 301 300 299
298 294 294 289 294 290 288 290 296 299 301 302 302 301 302 304 304 303 303 301 300 299 300 297 296 296 297 296 296 295 295 296 295 296 295 295 296 296 296 297 298 299 300 300 301 303 303 303 302 303 303 304 305 305 304 304 304 304 304 306 307 307 307 306 305 305 303 302 302 301 301 301 301 301 300 299 298 297 297 296 297 298 300 300 299 298
301 300 299 295 291 296 297 298 299 299 299 300 302 303 302 302 303 303 302 299 300 300 300 297 297 296 296 297 295 294 294 295 295 295 295 295 296 296 297 297 298 300 301 300 301 301 302 303 303 302 302 302 303 303 303 303 303 302 303 305 306 306 306 306 305 303 302 301 301 300 300 299 299 299 300 300 299 298 297 296 296 296 297 298 297 298
300 302 300 292 295 293 286 296 295 296 298 300 300 302 303 303 302 303 301 301 300 300 299 299 298 297 297 296 295 294 294 294 294 294 295 295 295 296 296 297 298 299 300 300 301 300 301 301 300 300 301 301 302 302 302 302 302 303 304 304 305 305 305 304 305 304 303 302 300 300 299 298 298 298 299 299 299 299 298 297 296 295 295 297 298 296
294 304 297 296 294 290 288 294 296 299 299 300 300 299 299 300 301 302 302 301 300 300 300 299 299 298 298 296 295 294 294 294 293 293 294 294 294 295 296 296 297 297 298 300 302 303 301 300 300 300 300 300 302 303 303 302 302 302 303 304 305 305 305 304 304 303 303 303 302 301 300 299 293 296 298 297 296 296 298 298 297 294 293 294 296 297
296 299 291 294 290 292 295 295 296 298 298 298 300 300 301 300 300 300 300 300 300 299 298 299 299 298 297 296 296 295 294 294 295 295 294 294 294 295 296 296 297 297 299 300 301 302 302 301 301 301 301 301 303 303 302 302 303 303 304 303 304 305 304 304 303 303 303 303 303 302 301 300 299 298 298 297 296 294 293 294 297 296 293 292 292 294
298 292 296 293 289 288 289 291 295 289 289 294 297 299 300 300 300 299 299 298 298 298 298 297 297 298 297 297 296 296 294 294 295 295 294 294 294 295 296 296 297 298 299 300 301 302 303 303 303 303 301 302 304 303 302 303 304 304 303 303 303 303 303 303 302 302 302 302 302 302 302 301 300 299 298 298 296 295 293 289 290 293 295 292 290 289
294 295 296 292 290 289 295 296 299 298 296 297 297 299 300 300 299 298 297 297 298 298 298 297 295 295 296 296 297 296 295 295 295 296 295 294 295 296 297 297 297 298 298 299 300 300 301 302 304 302 301 302 303 303 303 303 303 303 303 303 303 303 302 302 301 301 301 301 301 300 303 302 301 300 300 298 297 296 294 293 292 289 289 290 290 290
Wind_Speed
10 13 14 15 14 16 18 18 17 19 16 14 14 14 14 15 12 14 12 18 19 15 16 16 18 18 19 14 17 16 14 11 11 12 11 8 10 14 16 12 14 12 9 8 7 6 6 6 6 6 6 7 7 6 6 7 7 7 7 5 5 4 4 4 4 4 2 4 4 2 2 2 4 3 3 4 3 4 4 6 5 7 5 5 5 5
13 14 16 17 17 18 18 17 16 19 21 18 12 13 12 15 13 13 14 21 19 12 15 16 16 17 15 13 16 14 14 14 11 12 10 11 11 13 18 17 14 11 7 9 7 6 5 5 5 6 6 7 8 6 6 6 6 6 6 5 5 4 2 2 2 2 3 2 1 1 2 2 3 4 4 5 4 3 3 4 4 4 6 5 5 5
15 17 16 17 16 17 16 18 18 18 19 19 14 12 12 12 14 11 16 18 18 14 11 17 15 14 16 15 17 14 13 10 10 13 10 9 12 15 17 16 13 13 11 10 9 8 6 6 5 4 4 5 5 5 5 5 6 6 5 4 4 2 4 3 2 1 3 2 2 1 1 1 1 1 2 1 3 6 4 4 4 4 5 5 6 6
14 16 17 17 16 17 18 17 18 18 17 14 14 12 10 12 12 9 15 17 17 11 10 16 14 11 15 11 14 12 13 11 15 12 11 7 7 17 19 18 16 15 14 12 11 9 9 9 7 6 5 5 4 4 5 3 5 4 4 4 3 3 1 3 2 3 2 3 2 1 1 1 1 2 1 3 2 3 4 4 4 5 7 8 7 8
14 12 16 17 18 18 18 17 16 14 14 15 16 13 10 14 14 14 8 9 11 13 11 13 12 10 13 10 10 11 12 15 15 12 12 11 9 10 18 15 16 17 14 13 11 10 9 8 8 9 7 5 4 3 4 3 3 3 5 3 3 2 2 1 3 1 1 2 3 2 2 2 1 2 3 2 3 4 5 5 6 6 7 8 7 8
17 15 16 18 18 19 18 16 18 15 14 14 17 16 14 14 11 19 12 15 10 11 13 13 10 11 12 13 13 12 12 12 11 9 10 11 10 15 21 18 16 14 13 13 12 11 9 8 7 8 8 6 5 3 3 3 3 3 3 3 1 1 1 1 2 2 2 3 3 3 3 4 4 4 5 5 4 4 5 5 6 7 7 8 7 7
13 15 16 19 19 19 20 17 18 18 14 13 13 17 19 15 12 12 19 13 10 11 14 16 12 7 11 15 16 14 9 9 8 8 7 7 7 11 12 13 12 13 11 12 11 10 11 9 9 8 7 7 6 5 4 4 5 5 4 2 0 1 1 0 2 2 2 3 3 3 3 3 3 2 1 1 2 3 3 4 5 5 7 7 7 6
14 18 17 17 19 18 17 17 17 19 14 13 9 16 19 18 16 14 19 12 7 7 9 17 14 9 12 14 18 18 16 16 13 13 13 13 12 14 12 11 10 9 10 10 10 9 9 7 7 8 6 6 5 5 5 4 3 4 2 2 1 1 2 1 1 2 3 3 3 3 2 2 4 3 2 1 3 2 3 4 5 4 4 5 6 7
17 18 21 19 18 16 16 16 16 17 15 11 12 16 18 17 15 15 14 11 10 10 11 13 19 12 10 11 15 18 18 17 18 16 15 14 13 16 14 12 10 6 7 10 9 10 11 9 8 8 7 6 5 4 5 5 3 2 1 2 2 2 2 2 3 2 2 3 3 3 2 2 3 3 2 1 1 2 5 6 6 4 4 4 5 5
13 18 17 19 16 14 15 16 17 17 16 16 13 13 12 16 15 14 10 14 11 9 11 14 16 11 10 9 11 12 15 16 17 16 13 10 9 16 15 13 12 6 5 13 12 11 11 9 8 7 7 6 3 3 3 3 2 1 1 2 3 3 3 2 2 2 3 4 3 3 3 4 4 3 2 1 1 3 2 3 1 0 1 2 3 4
14 16 16 14 16 13 15 16 19 19 17 11 17 13 13 15 11 10 12 11 9 9 12 15 17 13 9 11 13 13 14 12 13 10 6 4 12 11 14 13 9 9 9 10 11 11 10 8 7 5 7 6 3 2 3 3 3 3 3 3 3 3 2 2 2 3 4 3 3 3 3 5 4 4 4 2 4 4 4 3 3 2 2 2 4 4
18 16 15 14 16 14 18 16 16 16 15 15 12 12 10 11 8 8 9 8 6 9 14 16 16 21 12 8 10 12 13 15 16 16 15 6 13 11 10 13 11 12 12 11 11 11 10 8 7 7 7 5 4 3 3 2 2 1 1 1 2 2 2 2 2 2 3 4 4 3 3 4 5 4 4 3 4 5 5 7 6 2 2 3 5 5
19 16 13 16 13 19 14 12 14 16 17 15 14 13 11 9 6 8 8 9 11 9 13 18 18 15 16 2 13 14 17 15 20 18 15 14 14 13 12 12 11 10 11 10 9 9 8 7 7 6 6 5 3 4 3 3 2 0 1 3 3 3 3 3 3 3 4 3 3 4 4 5 4 5 3 6 5 3 4 5 6 5 5 4 5 6
14 16 17 18 18 17 16 15 14 15 15 16 17 14 13 12 11 8 11 6 8 11 12 13 17 13 7 7 11 10 18 20 18 19 18 15 14 13 11 10 11 10 9 9 9 8 8 6 5 5 6 6 5 5 4 4 3 3 3 4 5 4 3 4 3 4 4 4 4 4 5 4 3 4 4 3 4 5 4 4 6 6 5 6 7 4
13 15 17 19 13 14 17 17 14 12 15 16 16 16 14 14 9 8 10 9 10 8 11 14 12 7 9 7 9 16 17 19 16 15 16 17 15 14 13 12 11 10 9 9 9 8 7 6 6 5 5 5 5 6 5 5 6 5 5 6 7 6 6 6 6 5 5 5 4 4 4 4 3 4 3 4 4 4 4 4 5 6 6 6 6 3
19 12 13 18 11 17 19 19 17 16 14 14 14 14 13 11 8 10 6 8 9 9 9 11 1 9 10 9 10 14 15 16 18 20 19 16 14 13 12 11 8 8 9 9 9 8 8 7 6 5 5 6 6 7 6 7 5 5 5 6 5 6 6 6 6 6 6 6 5 5 4 4 4 3 5 5 4 4 3 4 5 7 6 5 4 2
14 13 14 16 20 19 21 18 19 17 12 13 15 16 14 11 13 4 5 9 2 3 8 4 7 9 9 7 5 13 17 17 16 18 17 15 14 13 11 9 8 9 8 8 8 7 7 7 7 6 6 5 6 6 5 5 5 5 5 5 6 6 6 7 7 6 6 5 5 4 4 4 4 4 5 5 6 6 5 4 2 4 6 5 4 5
7 10 16 18 23 19 19 20 20 19 13 10 14 15 13 14 14 7 7 5 6 6 5 11 12 11 11 5 10 5 13 14 14 14 15 14 13 13 10 7 8 8 8 9 9 8 8 7 7 7 6 5 5 5 4 4 3 3 3 4 4 4 5 6 7 7 6 6 6 5 5 5 5 5 5 6 5 4 5 5 4 3 3 5 4 3
11 9 13 17 17 17 17 19 19 18 17 13 14 11 13 8 13 11 3 8 9 7 5 13 13 9 11 9 12 14 16 15 16 16 15 15 14 13 11 9 8 9 8 8 8 8 7 7 6 6 7 6 5 4 4 5 3 3 3 3 3 5 4 4 5 5 6 5 5 5 6 7 7 6 6 6 5 5 6 6 5 4 3 4 5 5
10 7 7 15 18 17 15 15 13 13 17 18 14 15 14 9 11 7 5 6 8 7 6 12 15 5 11 12 20 20 18 18 17 16 16 15 15 12 10 9 8 8 8 8 8 8 8 7 7 7 6 6 6 5 4 4 3 4 4 4 5 5 6 6 7 6 5 5 5 6 6 6 7 8 8 8 7 6 6 6 6 7 6 6 6 5
5 5 3 7 20 16 13 11 14 14 13 15 13 12 12 8 8 11 9 12 9 7 9 6 9 6 4 13 20 22 21 20 19 17 15 14 14 13 11 9 8 9 8 8 9 8 8 7 7 6 6 6 5 4 5 5 5 5 4 5 6 5 5 6 6 6 6 7 6 6 7 7 7 8 7 8 8 7 6 6 5 5 5 6 6 7
3 3 4 7 13 12 12 15 18 19 18 15 14 13 14 15 13 14 11 12 11 9 6 8 5 7 6 6 10 19 18 19 18 18 15 15 15 12 10 10 10 9 9 8 7 7 7 7 7 7 6 6 5 3 5 4 4 5 4 3 4 6 7 7 6 7 6 6 7 8 8 8 7 7 7 8 7 7 7 7 6 5 5 5 6 4
5 2 4 5 9 14 17 18 19 19 19 18 15 14 16 13 12 10 9 10 11 10 11 9 4 1 8 6 10 10 8 15 16 18 16 15 15 14 12 10 9 8 8 8 8 7 7 6 6 6 8 8 6 4 3 4 6 5 6 7 7 7 8 8 8 8 7 6 7 8 7 8 8 9 9 9 7 8 7 7 7 6 6 6 6 4
9 2 5 8 10 12 15 16 17 19 19 19 17 15 14 14 15 12 10 6 7 6 8 6 2 4 7 7 12 17 15 15 14 16 17 14 13 13 13 12 11 9 7 5 5 6 6 6 6 7 6 6 6 6 4 4 6 5 6 7 6 7 7 6 6 7 7 7 8 8 8 8 8 9 9 8 7 9 7 7 6 5 6 6 5 5
6 7 9 7 8 10 13 13 15 17 16 13 13 15 17 16 18 14 10 3 3 7 10 8 4 2 2 5 11 17 17 18 17 15 15 14 12 12 12 11 10 10 9 8 9 8 7 7 8 7 7 5 6 5 5 4 6 6 7 7 7 7 6 7 7 7 7 7 7 7 7 8 7 8 8 8 7 8 8 7 5 4 6 7 7 5
5 8 8 9 11 10 10 11 13 15 17 12 15 18 20 18 17 12 10 7 5 6 15 3 4 8 9 12 15 16 17 16 14 14 14 14 14 12 11 11 10 9 8 8 9 8 8 8 7 7 6 6 5 5 2 3 7 7 8 8 6 6 7 7 6 6 6 7 7 8 9 8 8 9 8 8 7 7 7 6 5 6 5 4 5 6
6 7 10 8 9 9 11 11 11 13 12 15 17 20 18 17 17 14 6 6 7 5 7 8 17 15 12 15 15 15 16 17 14 14 15 14 14 13 12 11 11 10 10 9 8 7 7 8 8 7 7 6 5 3 5 7 7 8 8 6 5 6 5 4 5 7 7 8 7 7 8 8 8 8 7 8 8 7 7 7 5 4 5 6 4 4
4 9 9 7 8 7 1 7 9 9 15 20 19 18 19 18 15 10 4 4 4 6 2 2 19 19 15 15 15 15 16 15 13 14 15 14 13 12 12 11 12 11 10 8 8 9 9 7 7 5 6 7 4 5 8 9 9 9 7 7 7 7 5 6 8 8 9 8 8 8 8 8 7 8 9 7 8 8 8 8 8 7 5 5 6 6
1 3 9 6 5 7 2 4 10 7 11 15 14 11 14 18 14 8 6 8 4 3 6 10 15 18 17 14 14 15 15 14 14 15 14 14 13 13 13 13 13 12 11 10 9 9 9 8 7 7 8 7 5 7 9 8 5 5 9 7 7 8 9 9 8 9 9 8 8 8 8 8 7 7 9 9 10 10 10 10 9 10 10 7 6 6
5 3 2 8 7 7 7 5 2 5 6 8 13 14 14 9 7 11 6 8 14 11 14 13 5 11 11 14 12 11 11 14 13 13 13 14 14 13 13 13 13 12 11 10 10 9 9 9 8 8 7 6 8 9 8 7 6 10 7 8 9 9 8 7 7 7 7 8 8 7 9 9 8 9 9 10 11 11 11 11 11 11 11 10 9 8
9 1 4 3 4 6 6 2 5 3 2 8 9 10 9 5 9 3 14 14 16 15 14 18 17 10 4 11 11 9 10 10 12 15 15 14 13 13 13 13 12 11 10 10 9 9 8 8 8 8 7 7 7 8 5 4 7 7 7 8 8 9 9 8 8 7 7 9 9 8 9 9 10 9 10 10 9 10 11 12 11 11 12 11 11 11
7 3 4 3 0 5 9 7 3 6 5 3 8 13 10 2 7 7 6 2 11 12 15 14 15 9 7 10 12 12 12 12 14 15 14 12 12 13 13 12 12 11 10 10 10 9 9 8 8 7 7 6 7 8 5 4 4 11 7 9 9 9 8 7 7 8 10 11 10 10 10 9 10 10 9 9 10 10 11 11 12 12 12 12 12 10
5 5 4 3 2 4 7 4 8 4 5 3 3 8 6 12 12 11 9 4 12 17 12 4 7 9 11 12 14 12 13 11 12 13 14 13 12 12 13 12 11 10 10 9 9 9 9 8 7 7 6 7 7 8 8 8 11 8 9 7 8 5 6 7 8 10 11 11 10 10 10 10 9 9 9 9 10 10 11 11 12 12 13 13 11 10
8 7 3 7 5 3 8 11 10 4 7 3 2 6 4 9 13 15 10 9 10 6 4 5 14 13 12 11 16 12 11 9 7 7 7 8 10 11 12 10 9 9 10 9 8 8 7 7 6 6 6 6 9 8 6 8 9 7 6 8 8 7 6 9 10 11 11 11 11 11 10 10 10 9 9 9 10 11 11 11 11 10 9 10 11 11
9 8 5 5 4 1 9 12 4 5 2 2 4 4 6 10 15 17 12 12 11 13 17 18 17 16 14 13 14 13 12 11 10 11 10 8 9 10 12 10 8 8 9 9 9 8 8 8 7 7 7 8 7 5 6 7 8 7 9 7 9 10 10 10 12 11 11 10 11 11 11 11 10 10 10 10 10 10 11 10 9 10 10 10 10 11
4 5 3 4 3 4 1 2 4 2 1 3 2 3 7 8 13 17 13 11 9 8 12 16 15 16 16 17 16 15 15 12 11 8 8 8 9 10 11 10 9 7 7 7 9 8 8 8 7 7 7 6 7 8 8 7 8 7 8 9 10 8 9 12 12 12 11 11 11 11 11 11 10 10 11 11 10 11 11 11 10 10 9 9 9 9
5 2 2 4 2 3 3 3 4 6 5 4 5 4 7 7 7 8 7 6 7 7 9 14 16 17 17 16 17 17 16 12 10 7 7 9 10 9 10 10 9 9 8 8 8 9 8 7 6 5 6 7 8 8 6 6 6 8 10 10 10 11 11 12 12 12 11 11 11 11 11 11 11 11 11 11 11 11 11 10 10 10 8 9 9 9
6 2 7 2 1 2 4 4 4 3 3 4 2 6 7 5 4 6 12 7 8 9 11 12 14 14 15 15 14 14 12 12 8 3 4 9 9 10 9 9 8 7 9 9 9 9 7 6 4 6 9 7 8 7 5 6 8 9 9 10 10 11 12 12 12 12 11 11 11 11 11 11 11 10 10 10 11 11 10 9 8 9 8 8 8 9
11 9 6 3 1 1 2 3 3 4 2 2 7 7 7 11 11 11 8 5 8 11 11 12 13 13 13 14 14 11 7 7 5 5 6 7 9 9 10 10 9 7 8 9 8 8 8 6 8 7 6 8 6 4 5 10 10 9 10 9 10 11 11 12 12 12 12 12 11 11 11 11 11 11 10 11 10 9 10 10 9 7 7 7 7 7
8 3 2 1 2 2 1 1 1 1 1 3 4 4 3 4 6 4 4 5 9 11 12 12 13 13 13 13 11 7 3 6 8 8 9 10 10 10 10 11 10 11 10 7 9 8 7 8 8 6 7 7 6 9 10 8 10 10 9 9 9 11 11 11 12 12 12 12 12 12 12 11 12 11 11 10 10 9 9 8 8 9 8 8 7 7
3 1 1 2 2 1 3 1 2 2 2 6 3 4 8 2 3 4 2 8 12 13 12 12 12 12 13 13 8 3 4 6 12 12 11 12 11 8 9 12 9 7 7 6 9 7 9 8 6 8 9 7 8 8 7 9 8 9 9 9 9 10 10 10 11 12 12 13 12 13 13 12 12 12 12 10 9 9 9 9 9 9 9 9 9 9
6 3 2 2 3 5 5 5 1 3 2 1 3 7 8 2 3 4 5 10 13 13 13 12 12 12 11 8 8 10 11 16 17 13 13 12 11 10 10 9 9 7 6 5 7 4 10 8 8 8 9 9 8 7 7 8 8 9 9 8 10 9 8 9 11 12 13 14 14 13 14 14 13 11 10 10 10 10 10 9 10 9 10 9 9 11
2 4 6 7 6 3 2 4 5 5 2 8 3 5 7 0 3 6 10 12 12 13 13 12 10 11 11 13 13 15 15 15 16 14 13 12 11 11 11 10 9 8 6 8 9 10 9 9 9 9 8 8 8 7 7 8 8 7 7 9 9 8 9 9 10 12 12 12 13 13 13 14 15 12 10 10 11 11 10 8 10 11 10 10 10 11
4 2 1 3 3 3 7 3 3 5 5 7 3 3 6 9 8 10 10 12 12 11 12 11 10 11 13 14 15 15 15 17 16 15 14 13 12 11 11 10 10 8 8 8 7 7 10 9 9 9 9 8 8 8 7 7 8 7 8 9 9 9 9 10 10 11 11 10 12 12 11 12 14 13 13 13 11 11 11 11 9 9 10 10 10 9
8 6 3 5 6 2 3 5 6 8 8 9 10 10 10 9 10 11 10 10 11 10 11 10 12 12 13 16 16 16 15 14 15 14 14 13 12 11 10 9 8 7 7 9 9 7 7 9 9 8 10 9 10 9 9 8 9 10 10 8 7 10 11 11 11 11 12 12 12 11 12 11 11 12 12 11 11 11 10 12 10 9 8 10 10 10
8 13 13 11 11 15 13 9 8 9 9 10 10 10 11 12 12 11 12 10 9 10 9 11 13 14 15 16 17 13 14 15 14 13 13 12 12 11 9 9 7 5 7 7 6 5 8 9 10 10 10 11 10 9 8 9 9 10 9 8 9 8 9 10 10 11 12 13 12 13 13 12 12 12 11 11 11 10 9 10 11 11 10 9 9 9
6 2 5 8 12 4 6 5 9 8 8 9 11 11 10 10 10 9 10 11 11 12 13 13 14 15 15 13 14 17 16 14 14 13 13 12 12 10 9 8 6 6 6 7 6 6 9 9 10 10 10 10 9 9 9 9 8 8 8 8 8 8 9 8 7 9 10 11 12 11 11 12 10 10 10 9 8 9 9 8 8 9 10 9 8 9
7 8 11 9 7 4 9 10 9 8 9 9 8 9 11 11 11 11 11 12 12 13 13 14 14 14 14 14 15 16 16 14 13 12 12 11 10 9 8 8 7 7 7 5 5 4 6 9 10 10 10 9 6 7 7 7 8 9 8 6 6 6 7 7 6 6 8 10 8 8 10 9 10 11 9 9 8 7 7 9 8 8 8 8 8 7
4 5 3 6 7 10 12 10 9 9 9 9 9 8 9 10 12 14 13 14 14 15 15 14 12 13 14 15 15 16 15 14 14 12 12 11 10 9 8 7 7 6 5 5 5 8 9 9 8 6 9 8 5 8 7 7 8 10 9 8 7 6 6 5 5 6 7 6 6 8 8 8 8 9 9 9 10 9 7 6 6 8 8 8 6 5
8 9 8 11 10 8 8 10 13 9 7 7 9 10 11 13 13 14 14 14 14 15 14 16 15 14 14 14 14 14 15 14 14 13 13 10 9 9 9 8 7 6 6 4 5 6 8 9 6 3 5 4 5 8 7 6 6 6 9 9 8 7 7 6 7 8 7 5 5 4 7 8 8 9 9 9 9 9 10 14 15 9 7 5 9 14
10 11 7 3 1 6 10 15 5 9 13 9 9 11 12 12 13 14 14 14 14 14 14 16 17 16 14 14 13 14 14 14 14 14 13 11 10 8 8 8 8 9 8 6 6 7 7 7 5 6 5 3 4 6 7 7 7 7 8 8 8 7 8 8 6 6 6 7 7 8 5 4 7 8 8 9 8 8 9 7 9 12 11 12 12 13
Wind_Direction
169 202 203 208 212 208 214 220 220 229 242 222 214 211 223 233 226 229 193 168 178 197 207 197 222 232 246 204 143 161 188 200 203 198 247 151 165 133 117 112 100 109 146 140 122 129 145 154 141 132 133 126 131 143 144 140 139 143 141 143 128 129 156 176 168 182 183 184 172 184 186 199 177 179 175 167 155 185 170 186 174 168 177 189 187 200
207 206 214 211 211 216 210 220 225 233 244 251 229 218 218 227 236 211 212 164 170 204 194 214 215 231 238 155 165 177 182 199 197 203 218 182 172 142 119 125 117 129 121 128 131 138 145 149 136 126 129 136 144 151 150 143 138 138 131 128 128 146 151 133 117 137 144 235 252 160 158 163 183 168 175 173 169 165 188 177 169 170 172 178 186 177
210 215 211 213 209 218 220 212 224 231 240 247 253 218 219 224 245 209 228 168 163 196 202 202 217 227 226 192 156 184 182 177 196 212 194 197 176 121 128 126 127 131 136 138 142 148 131 120 113 120 122 135 132 140 135 134 133 130 127 148 134 139 151 136 105 252 179 80 65 352 29 303 310 119 114 331 149 159 163 183 182 170 162 186 187 182
208 216 212 209 210 214 221 217 215 226 239 242 245 253 217 222 215 217 225 180 165 186 200 187 209 231 227 209 152 183 164 179 204 203 173 185 201 132 140 142 138 141 140 147 154 156 150 141 133 116 117 107 113 121 125 138 135 131 127 124 124 133 181 124 121 327 15 73 55 210 221 267 228 307 127 151 184 157 168 180 184 184 187 194 197 189
211 207 205 209 212 210 219 217 213 218 228 231 242 238 237 224 206 240 161 148 154 181 242 182 210 214 235 146 174 155 180 199 201 184 185 195 211 155 127 136 141 143 147 149 156 147 153 153 150 133 129 128 145 137 131 133 129 125 120 129 135 142 144 164 126 209 300 113 186 202 220 209 217 203 232 204 187 178 180 188 190 200 192 198 204 204
215 207 193 208 211 208 214 217 213 213 224 226 230 238 239 237 207 220 151 164 162 190 202 226 193 214 216 184 174 161 200 198 170 178 186 180 190 117 135 141 148 142 144 146 152 152 154 139 141 134 144 154 147 138 120 120 114 106 105 111 96 92 96 122 155 184 203 220 233 209 206 210 197 210 191 192 190 169 187 199 193 193 200 196 206 209
226 197 203 199 209 208 209 221 211 211 224 225 210 231 245 255 231 213 145 169 185 203 183 224 232 189 214 216 170 173 168 166 157 183 181 202 190 132 121 132 135 139 144 146 149 148 132 135 137 137 143 148 131 97 92 101 95 92 104 103 114 359 26 65 267 193 212 241 243 251 260 272 271 278 286 112 129 126 155 216 215 198 194 198 195 204
220 207 197 201 204 211 208 215 211 207 218 224 202 216 237 252 246 212 151 181 193 199 215 216 218 244 197 225 171 168 176 182 195 192 198 194 195 113 92 73 88 120 127 131 145 140 132 126 127 119 95 98 104 113 105 96 94 110 137 118 242 327 288 234 215 234 225 256 235 239 237 264 286 276 286 73 109 136 183 220 212 189 197 209 209 198
203 217 202 193 205 209 215 209 210 203 214 225 211 214 225 237 246 255 204 173 199 184 218 217 212 232 237 198 199 171 195 194 196 202 194 190 185 120 122 132 121 95 126 124 117 97 95 98 88 82 87 87 86 87 95 92 88 98 138 197 219 228 237 227 238 267 261 258 286 293 289 254 231 256 255 184 272 212 214 214 215 200 204 200 212 228
197 221 223 211 197 213 214 204 214 206 214 218 231 210 219 229 241 255 251 218 185 206 213 218 204 227 227 208 203 195 217 200 200 190 181 175 172 128 121 115 110 94 43 96 97 101 102 99 97 97 100 85 71 92 120 133 136 149 228 205 228 223 230 226 224 227 256 263 268 278 281 285 304 316 304 344 188 249 254 265 275 313 290 260 226 225
207 190 225 225 208 206 216 212 210 216 217 205 231 229 208 225 227 252 268 226 187 214 227 222 196 212 231 224 199 203 208 189 184 144 90 143 103 93 105 115 121 140 171 114 111 106 103 100 103 112 106 118 138 140 113 114 160 162 199 217 229 225 233 240 239 267 274 266 249 258 275 291 301 294 288 267 289 303 301 271 245 228 211 245 259 227
226 182 202 226 220 200 209 208 208 218 199 210 220 226 189 219 212 234 255 227 207 213 211 229 217 191 229 228 231 198 171 197 147 119 117 213 129 131 126 136 147 138 116 115 113 109 104 107 111 117 114 120 125 111 117 129 90 149 247 268 258 243 287 238 241 225 236 260 283 273 273 270 263 281 328 335 289 288 294 298 294 268 229 222 240 250
223 209 197 223 223 226 201 222 197 213 201 202 217 219 200 188 187 219 223 221 219 221 199 213 225 190 203 349 332 169 184 138 114 127 136 139 121 114 115 112 109 110 117 117 113 109 111 113 112 106 116 120 111 105 108 93 86 75 45 325 338 341 332 325 318 303 304 286 256 255 262 267 292 286 263 275 270 264 269 276 286 289 275 253 235 240
211 217 199 205 212 203 195 207 198 201 200 198 211 211 209 195 186 211 210 230 231 225 232 209 229 238 112 32 21 72 89 107 117 125 132 125 127 124 115 110 100 94 98 98 102 97 88 84 91 96 94 93 89 77 71 72 54 39 27 10 7 352 343 343 323 314 306 300 305 320 315 324 334 315 298 255 241 263 262 264 270 270 265 273 270 297
197 201 217 205 201 175 216 215 204 203 194 201 212 216 223 212 193 195 205 206 212 219 215 237 224 173 125 116 82 96 113 112 121 111 107 100 104 105 100 98 98 102 105 102 96 94 92 86 84 90 88 90 83 73 65 54 36 30 32 11 8 358 355 351 340 335 332 331 329 331 323 325 340 316 294 278 269 253 259 273 276 278 276 275 287 35
210 216 205 207 206 185 210 228 234 199 197 201 210 223 227 210 192 212 197 220 202 213 206 228 239 18 106 105 93 113 111 112 103 105 109 112 118 116 109 103 105 111 119 119 110 107 108 104 105 92 75 70 61 61 54 44 35 35 30 17 10 358 352 349 346 345 335 329 335 335 327 331 321 324 314 308 304 300 273 262 271 285 288 299 311 358
205 211 200 186 212 203 208 212 225 219 208 179 207 214 217 197 216 189 176 240 290 246 218 196 87 104 105 58 29 95 103 103 107 112 119 122 125 120 109 115 122 117 113 100 101 103 105 99 84 77 76 68 63 63 56 44 34 29 37 20 359 5 359 353 351 344 338 335 327 327 324 318 310 305 301 301 298 292 291 292 284 293 290 284 280 273
210 212 204 201 202 211 197 214 226 223 220 182 213 212 194 202 228 210 209 174 231 236 219 206 137 150 153 156 161 201 122 124 118 120 124 125 122 114 116 112 120 117 115 117 119 121 119 113 102 99 89 88 93 100 100 97 101 63 52 27 1 9 6 2 351 339 338 340 334 330 332 328 315 305 293 284 285 298 300 292 277 259 281 299 302 262
229 226 210 204 206 213 199 205 226 232 210 218 203 205 205 173 211 212 206 194 202 217 225 215 141 169 182 146 163 164 156 147 143 138 136 136 128 125 124 119 115 123 124 129 131 126 121 108 110 104 101 96 90 76 77 81 67 86 82 66 13 11 8 2 346 339 333 345 340 342 337 329 323 318 316 316 324 332 316 315 318 316 301 299 282 273
206 250 221 196 203 202 197 200 216 213 197 228 213 203 206 216 214 215 198 210 203 212 219 223 158 191 181 160 169 167 164 156 150 146 143 137 136 135 131 132 131 127 126 128 126 120 112 114 108 108 105 100 98 101 92 76 62 53 34 35 35 16 11 6 353 340 339 347 341 336 329 329 329 331 332 333 340 340 329 324 328 327 317 305 301 272
220 234 279 215 202 199 198 190 217 203 187 199 209 200 190 230 208 235 196 218 199 215 208 235 214 150 357 169 170 170 165 161 153 148 136 136 135 135 133 135 131 127 125 124 118 111 112 109 109 106 104 84 78 92 91 70 57 40 33 28 32 11 16 17 355 344 349 337 340 339 337 336 337 331 331 337 335 330 325 325 327 324 311 308 297 294
239 208 236 253 207 201 196 187 213 202 197 199 208 206 203 205 208 205 217 204 214 213 205 204 222 72 351 5 180 163 153 148 144 134 133 137 132 132 126 120 120 115 113 111 109 119 115 109 111 118 111 101 98 88 88 99 78 61 43 27 37 24 22 7 355 354 357 348 347 352 339 336 336 337 337 335 327 324 331 327 330 330 322 309 300 299
209 174 199 242 248 202 202 188 216 220 203 198 202 214 203 205 220 208 225 197 213 221 228 210 217 82 10 5 98 99 125 131 129 132 129 129 130 128 126 120 111 110 115 120 122 115 113 118 115 99 91 86 72 45 72 81 72 53 34 28 23 23 22 10 2 351 347 355 352 343 336 340 342 345 340 336 331 328 334 330 329 333 322 312 310 310
124 250 207 217 234 241 224 212 200 228 224 208 203 220 214 209 208 227 226 203 214 224 221 219 179 89 36 79 94 112 122 111 121 129 123 125 124 124 126 126 126 118 103 115 121 123 115 121 107 89 83 84 78 67 44 68 69 58 53 38 26 28 16 15 359 349 358 2 351 347 350 351 349 345 339 336 337 330 335 330 332 316 316 302 291 303
155 195 222 188 208 212 218 210 199 211 233 225 203 205 219 215 204 220 231 165 243 222 230 228 142 155 76 92 99 112 118 125 128 125 124 124 127 131 132 132 130 130 136 132 111 97 85 71 74 79 83 67 75 78 53 54 81 67 52 37 28 24 8 17 5 351 355 7 355 354 354 351 346 334 333 331 329 324 331 333 324 341 320 311 309 299
181 174 209 191 189 194 215 214 194 193 209 214 221 210 211 217 211 204 213 172 221 259 243 219 83 111 126 124 115 124 123 124 128 128 130 133 134 136 134 131 130 125 116 106 105 103 97 93 87 82 68 64 48 43 28 82 69 58 54 49 34 18 20 22 350 348 359 6 5 2 359 348 343 337 336 332 329 328 327 336 344 328 311 305 305 305
196 172 207 218 192 211 220 228 215 200 197 217 210 216 202 217 226 231 225 208 205 210 239 108 146 134 149 143 139 141 138 136 134 135 134 134 134 131 130 127 127 125 120 114 109 104 94 82 79 78 81 75 58 17 45 53 55 53 53 51 38 30 18 16 353 9 15 9 12 357 3 345 337 340 342 343 337 337 344 347 345 321 322 315 301 326
201 201 182 222 242 234 3 299 286 252 214 209 212 206 205 205 221 226 220 216 217 249 104 128 141 145 157 155 151 146 136 134 133 136 133 134 135 131 130 128 125 122 122 125 115 103 92 92 93 80 63 60 61 53 51 49 40 43 46 35 32 29 15 21 11 17 12 9 3 5 353 345 345 345 351 341 354 358 357 2 1 350 344 324 343 354
172 227 155 196 217 232 7 325 315 307 316 219 205 215 217 210 209 205 200 242 219 229 142 176 153 145 156 150 145 136 135 134 132 133 133 134 131 130 130 128 127 124 121 111 106 105 105 100 88 76 69 54 41 66 57 46 46 62 49 41 35 26 25 21 17 15 10 11 11 5 349 350 350 353 1 1 360 6 7 8 5 1 2 357 351 350
187 190 127 195 206 222 239 228 290 312 311 285 197 214 239 256 236 190 189 73 76 90 132 127 106 116 137 139 123 131 127 129 131 128 128 130 132 136 130 127 127 125 120 114 107 104 101 99 92 80 70 62 50 40 52 43 34 55 51 35 38 35 24 29 19 19 7 15 14 8 357 353 360 9 10 7 8 12 13 9 6 4 3 3 0 359
208 159 236 107 226 212 240 152 282 247 353 15 359 242 227 55 32 58 96 92 82 92 98 118 123 110 85 105 105 107 114 111 119 128 128 132 136 133 129 128 126 121 115 115 113 106 100 86 79 70 62 58 57 57 48 69 79 55 47 51 40 34 36 32 21 13 20 21 18 10 7 2 6 14 16 11 13 18 19 19 12 11 8 5 356 8
211 179 173 44 50 212 201 194 186 35 346 80 6 25 13 82 95 26 88 89 122 118 121 119 123 127 116 96 99 105 114 128 130 130 129 131 134 129 127 124 124 122 123 121 119 114 101 87 74 64 52 48 70 56 37 350 307 70 25 54 37 39 35 41 26 21 27 23 15 13 12 6 6 14 16 16 20 24 25 22 20 18 14 10 6 7
236 164 169 117 239 216 186 123 87 37 33 129 56 17 14 78 92 87 80 123 131 131 120 135 137 126 128 126 119 127 132 127 129 132 130 132 130 130 129 127 124 124 121 118 108 100 89 81 69 52 30 6 335 64 3 17 54 43 46 40 56 41 47 47 38 33 27 21 18 20 14 9 10 15 18 22 21 26 25 24 25 24 21 16 8 9
222 196 192 188 222 183 157 88 97 88 201 180 10 353 16 86 89 87 81 77 52 57 110 108 131 129 128 131 131 132 119 102 85 73 86 106 112 119 121 116 114 115 116 111 100 87 80 72 65 43 17 2 46 45 6 37 44 43 53 40 41 40 51 52 49 38 26 17 16 20 17 16 11 16 23 24 27 26 26 25 27 29 26 19 13 20
199 203 195 157 219 190 99 101 90 181 149 28 261 330 92 113 93 88 76 61 70 82 94 111 124 132 134 128 117 95 86 78 70 76 81 93 97 114 123 123 114 110 114 111 100 84 73 68 55 41 24 34 44 33 46 36 47 37 46 39 39 37 41 52 49 40 25 18 16 19 19 17 16 17 22 27 31 30 29 30 30 33 34 26 21 21
200 194 199 181 171 87 94 154 191 123 25 236 156 358 82 85 97 93 73 70 69 89 114 120 129 131 127 123 118 115 107 89 73 52 62 88 109 122 125 123 123 115 102 91 98 82 75 66 56 48 46 41 43 37 39 48 43 38 49 41 29 28 41 42 44 37 28 20 19 19 21 18 22 22 21 24 30 32 31 30 32 36 38 35 28 29
4 234 202 214 201 202 146 169 80 149 135 119 148 176 156 144 138 118 121 87 92 121 135 117 114 121 122 122 121 119 115 100 82 50 31 77 82 104 113 101 78 81 86 87 83 84 78 69 63 69 80 55 46 44 31 55 54 51 46 42 36 34 39 46 41 34 27 23 18 20 20 22 24 28 26 25 29 34 31 24 27 36 36 41 35 32
23 46 1 300 51 349 135 132 147 173 193 181 177 155 159 102 15 118 108 114 107 108 120 114 121 126 125 127 128 131 131 100 87 78 69 84 91 111 106 108 105 99 99 99 94 82 83 92 91 71 56 60 60 38 13 41 53 56 54 47 43 39 39 40 39 34 28 25 24 22 24 24 26 28 33 32 32 32 30 24 29 38 34 43 40 39
60 53 41 358 53 72 128 181 190 184 91 139 162 139 119 132 169 142 102 124 145 144 139 138 136 137 138 139 144 158 155 128 133 141 140 129 128 126 123 121 120 113 96 82 79 88 97 89 77 76 78 63 70 106 69 50 45 55 54 46 45 45 45 44 41 36 31 30 28 26 27 29 28 29 33 38 35 31 33 28 23 30 39 46 49 47
63 34 30 354 68 39 43 178 156 354 122 248 113 104 129 63 172 214 163 154 156 148 145 148 147 147 145 146 156 173 162 155 155 150 148 138 128 125 128 121 113 108 88 91 117 119 103 82 75 72 74 71 53 45 52 59 59 49 51 50 47 48 48 50 50 44 41 37 34 31 31 31 33 32 32 36 38 32 35 34 33 27 26 40 49 54
57 53 347 205 79 72 126 69 121 108 84 143 166 187 82 32 331 198 202 135 143 143 146 146 147 148 148 149 163 98 352 95 125 137 137 128 119 105 111 87 83 65 55 26 342 313 93 88 75 56 50 54 54 57 52 52 54 58 49 48 50 49 53 58 56 55 49 45 41 38 37 34 35 36 35 37 37 36 37 39 39 35 37 40 41 45
182 172 162 126 175 181 177 149 98 80 2 5 139 41 38 332 209 120 105 124 126 129 132 142 141 142 146 127 91 87 89 104 122 127 129 128 117 110 110 109 98 82 62 23 346 94 106 102 83 71 66 56 58 53 59 67 62 57 53 55 53 47 51 58 61 59 57 52 47 44 40 37 33 35 36 36 40 40 40 42 47 46 45 44 48 50
190 215 171 172 174 163 251 136 154 146 159 345 7 95 3 8 97 104 106 99 107 116 128 130 134 124 104 102 106 110 113 116 123 128 127 123 120 119 114 104 91 82 50 32 37 75 89 85 74 77 72 72 66 55 59 68 70 71 69 67 62 52 43 51 60 62 60 58 54 50 49 46 41 38 33 30 33 36 31 27 44 51 48 49 50 48
341 283 116 96 359 186 173 155 68 62 64 12 335 110 72 82 121 108 103 101 103 107 109 98 96 110 118 116 119 121 121 121 121 122 118 116 113 113 110 101 93 82 64 51 42 101 105 99 89 78 75 70 60 54 49 58 71 67 68 70 74 66 59 58 57 62 65 64 60 51 51 50 49 47 43 35 31 33 32 23 24 49 51 50 51 46
10 74 49 79 14 26 87 95 72 64 75 70 79 91 93 90 93 103 112 114 116 108 111 114 119 120 123 124 122 124 123 120 119 120 118 116 113 108 102 95 90 79 80 80 62 55 92 93 94 92 81 69 67 64 58 43 44 48 45 34 58 80 78 72 66 61 59 60 60 58 53 48 48 50 48 45 41 38 27 29 22 26 24 50 49 48
100 110 109 92 82 86 71 79 94 80 70 75 76 89 95 87 93 107 115 117 118 119 125 124 126 124 128 128 123 120 123 126 119 117 118 118 114 110 108 102 89 99 125 123 112 91 98 99 91 86 86 85 80 71 60 60 57 50 42 45 41 48 76 90 85 78 75 69 65 62 60 54 50 46 48 50 51 53 47 48 41 45 32 31 41 42
62 114 107 98 169 136 83 99 91 96 99 90 92 93 97 100 106 112 114 112 111 115 120 124 127 130 128 128 123 125 124 122 115 116 117 116 113 106 99 88 81 60 49 48 30 85 104 103 102 98 90 85 78 78 78 75 72 69 59 42 42 42 34 41 78 99 99 93 85 76 69 66 57 52 42 36 46 53 52 40 34 38 38 34 38 44
116 93 86 90 92 92 125 125 107 105 110 108 108 106 104 107 103 102 106 106 110 115 118 122 125 123 125 121 123 122 121 121 120 119 116 111 107 101 92 81 68 54 38 27 34 339 121 114 108 105 102 100 102 102 104 102 91 88 91 90 75 68 60 48 40 70 92 102 110 105 94 85 77 74 65 53 39 31 38 48 44 40 34 26 20 37
306 268 107 118 99 104 111 113 117 106 92 98 102 98 106 106 103 104 107 112 114 116 118 119 119 121 121 121 122 121 118 120 122 120 112 110 105 99 89 81 73 61 55 45 28 35 36 41 44 63 87 85 134 149 142 133 121 103 93 88 78 58 64 74 81 83 77 75 101 114 111 106 100 85 85 76 66 58 36 19 44 60 53 30 13 17
32 71 125 117 126 149 161 153 150 131 125 110 113 109 104 103 107 112 114 115 117 117 118 118 116 115 116 123 125 122 121 122 123 121 116 112 110 107 106 102 97 91 81 61 48 39 60 75 88 65 80 80 50 67 73 69 62 84 100 94 91 92 86 69 41 31 39 44 48 86 123 130 118 115 98 90 91 84 63 44 39 37 80 66 45 55
40 23 22 34 68 142 134 154 182 106 121 111 110 118 111 112 118 121 121 119 119 119 120 122 122 122 122 123 124 125 124 127 126 122 118 120 120 120 114 112 113 118 116 119 116 112 122 147 155 110 100 95 74 66 70 80 82 75 63 63 65 77 94 81 71 62 50 33 29 20 26 70 121 123 112 110 105 92 98 96 55 42 55 91 87 74